Retour au catalogue

CZ-6A DEB

ActifPO
NORAD 60892·DEBRIS·🇨🇳 China

Lancé Aug 6, 2024 depuis Taiyuan Satellite Launch Center

Loading…

Prochains Passages (prochaines 24 heures)

TLE

FraisSource: Space-Track

Époque: Sep 14, 2026, 07:49 UTC

1 60892U 24140KX  26257.32605056  .00000298  00000-0  13221-3 0  9996
2 60892  89.1164 275.6668 0051058 221.0991 138.6349 14.19957380107312

Suivez CZ-6A DEB en temps réel avec AllMySat

Download on the App Store